www.pogodaiklimat.ru

Погода и климат >> Архив погоды >> Беларусь >> Пинск


АРХИВ ПОГОДЫ в Пинске

Время (UTC), дата Ветер
(напр.,м/с)
 
Видим.   Явления Облачность Т
(С)
Тd
(С)
f
(%)
Тe
(С)
Тes
(С)
Комфортность P
(гПа)
Po
(гПа)
Тmin
(С)
Tmax
(С)
R
(мм)
R24
(мм)
S
(см)
03 13.02 штиль 0 8000 м дымка 9/9 840 м
[Sc]
-1.7 -2.8 92 -3 -3 по сезону 1017.0 999.0
06 13.02 В 1 4600 м дымка 10/10 270 м
[St]
-2.1 -3.1 93 -4 -4 по сезону 1017.8 999.8 -2.1 11
09 13.02 В 1 9000 м дымка 10/0
[Ac trans Ci fib]
+0.2 -2.8 80 -2 0 по сезону 1018.5 1000.6
12 13.02 ЮВ 1 10 км 9/9 800 м
[Sc]
+1.3 -2.6 75 -0 0 по сезону 1018.4 1000.6
15 13.02 В 2 8000 м слабый снег 10/0 420 м
[As op]
+0.5 -2.3 81 -3 -3 по сезону 1018.2 1000.3
18 13.02 ЮВ 2 8000 м в посл. час снег 10/10 270 м
[St]
-1.0 -2.2 92 -5 -5 по сезону 1018.8 1000.8 +1.8 0.1
21 13.02 В 1 10 км {снег} 9/9 600 м
[Sc]
-2.4 -4.1 88 -5 -5 по сезону 1019.4 1001.3
00 14.02 ЮВ 2 10 км {снег} 9/0
[Ac und]
-2.8 -5.3 83 -7 -7 по сезону 1019.0 1000.9
03 14.02 ЮВ 2 9000 м слабый снег 10/10 270 м
[Frnb Ns]
-3.3 -5.4 85 -7 -7 по сезону 1019.4 1001.3
06 14.02 Ю 2 10 км {снег} 9/9 600 м
[Sc]
-3.9 -5.9 86 -8 -8 по сезону 1020.5 1002.3 -3.9 0.0 10
09 14.02 ЮВ 3 10 км 10/10 360 м
[St]
-3.9 -6.3 83 -9 -9 по сезону 1022.0 1003.8
12 14.02 Ю 2 10 км 10/10 400 м
[St]
-3.4 -6.7 78 -7 -7 по сезону 1022.3 1004.1
15 14.02 В 2 10 км 9/9 500 м
[Sc]
-4.0 -7.0 80 -8 -8 по сезону 1023.5 1005.2
18 14.02 В 3 10 км 10/10 480 м
[St]
-4.8 -7.6 81 -10 -10 прохладно 1024.6 1006.3 -2.8
21 14.02 ЮВ 3 10 км {снег} 9/9 570 м
[Sc]
-5.2 -8.2 79 -11 -11 прохладно 1025.5 1007.1
00 15.02 ЮВ 2 10 км {снег} 9/9 660 м
[Sc]
-5.8 -8.6 81 -10 -10 по сезону 1025.9 1007.5
03 15.02 ЮВ 2 10 км 9/9 600 м
[Sc]
-6.3 -8.2 86 -11 -11 по сезону 1026.3 1007.8
06 15.02 ЮВ 2 10 км 10/10 450 м
[St]
-5.8 -8.0 84 -10 -10 по сезону 1027.5 1009.0 -6.5 0.0 10
09 15.02 ЮВ 1 8000 м дымка {снег} 10/10 480 м
[St]
-4.9 -7.3 83 -7 -7 по сезону 1028.3 1009.9
12 15.02 Ю 2 10 км {снег} 10/10 480 м
[St]
-3.9 -7.8 74 -8 -8 прохладно 1028.2 1009.9
15 15.02 ЮВ 2 10 км 9/9 540 м
[Sc]
-3.7 -7.0 78 -8 -8 по сезону 1027.9 1009.6
18 15.02 Ю 2 10 км 9/9 540 м
[Sc]
-3.9 -6.7 81 -8 -8 по сезону 1028.3 1010.0 -3.5
21 15.02 ЮВ 1 10 км 9/0
[Ac und]
-4.2 -6.7 83 -6 -6 по сезону 1028.0 1009.7
00 16.02 ЮВ 2 10 км 9/0
[Ac und]
-4.1 -6.2 85 -8 -8 по сезону 1027.2 1008.9
03 16.02 Ю 2 8000 м слабый снег 10/0 480 м
[As op]
-3.6 -5.1 89 -8 -8 по сезону 1026.4 1008.1
06 16.02 Ю 2 8000 м дымка {снег} 10/8 500 м
[Sc Ac trans]
-3.4 -4.7 91 -8 -8 по сезону 1025.1 1006.9 -4.4 0.0 10
09 16.02 ЮЗ 2 9000 м дымка 10/10 240 м
[St]
-1.9 -3.9 86 -6 -6 по сезону 1025.0 1006.9
12 16.02 ЮЗ 3 10 км 9/9 500 м
[Sc]
+0.3 -3.1 78 -4 -4 по сезону 1023.7 1005.7
15 16.02 ЮЗ 2 10 км 9/0
[Ac und]
+0.5 -2.5 80 -3 -3 по сезону 1022.9 1005.0
18 16.02 ЮЗ 2 10 км 9/9 1050 м
[Sc]
+0.3 -2.3 83 -3 -3 по сезону 1022.8 1004.9 +0.9
21 16.02 СЗ 2 10 км 10/10 450 м
[St]
+0.6 -1.6 85 -3 -3 по сезону 1022.9 1005.0
00 17.02 СЗ 2 6000 м слабый снег 10/10 270 м
[Frnb Ns]
+0.1 -1.7 88 -4 -4 по сезону 1023.4 1005.4
03 17.02 СЗ 2 9000 м дымка {снег} 9/9 540 м
[Sc]
+0.1 -2.0 86 -4 -4 по сезону 1023.8 1005.8
06 17.02 З 2 6000 м дымка {снег} 6/6 270 м
[St]
-2.3 -3.1 94 -6 -6 по сезону 1023.5 1005.4 -2.7 0.0 10
09 17.02 СЗ 2 12 км ясно +0.5 -2.5 80 -3 +1 по сезону 1022.5 1004.6
12 17.02 СЗ 3 10 км 10/10 450 м
[St]
+1.6 -1.6 79 -3 -3 по сезону 1021.5 1003.7
15 17.02 СЗ 3 10 км в посл. час снег 9/9 570 м
[Sc]
+1.4 -1.0 84 -3 -3 по сезону 1020.9 1003.1
18 17.02 СЗ 2 9000 м дымка {снег} 10/10 400 м
[St]
+0.8 -0.8 89 -3 -3 по сезону 1021.2 1003.3 +1.8 0.0
21 17.02 СЗ 2 7000 м дымка 10/10 270 м
[St]
+0.7 -0.6 91 -3 -3 по сезону 1020.9 1003.0
00 18.02 СЗ 2 7000 м дымка 10/10 300 м
[St]
+0.6 -0.7 91 -3 -3 по сезону 1021.0 1003.1
03 18.02 СЗ 2 6000 м в посл. час снег 10/10 210 м
[St]
+0.2 -0.7 94 -4 -4 по сезону 1020.8 1002.9
06 18.02 СВ 3 6000 м слабый снег 10/10 210 м
[Frnb Ns]
-1.0 -2.0 93 -6 -6 по сезону 1021.4 1003.4 -1.0 0.2 8
09 18.02 СВ 3 9000 м в посл. час снег 9/9 570 м
[Sc]
-1.6 -4.0 84 -7 -6 по сезону 1022.6 1004.5
12 18.02 С 3 10 км {снег} 9/9 750 м
[Sc]
-1.4 -6.2 70 -6 -6 по сезону 1023.5 1005.4
15 18.02 С 1 9000 м слабый снег 10/0 450 м
[As op]
-2.1 -4.7 82 -4 -4 по сезону 1024.3 1006.2
18 18.02 СВ 2 10 км {снег} 9/9 1020 м
[Sc]
-2.9 -5.4 83 -7 -7 по сезону 1025.6 1007.4 -0.9 0.1
21 18.02 С 2 10 км 9/9 960 м
[Sc]
-3.0 -6.3 78 -7 -7 по сезону 1026.0 1007.8
00 19.02 С 1 10 км 9/9 720 м
[Sc]
-3.5 -7.8 72 -6 -6 по сезону 1026.5 1008.2
03 19.02 С 1 10 км {снег} 3/0
[Ac trans]
-4.5 -7.9 77 -7 -7 по сезону 1025.8 1007.5
06 19.02 С 2 10 км {снег} 4/0
[Ac trans]
-5.3 -8.1 81 -10 -9 по сезону 1026.1 1007.7 -5.3 0.0 8
09 19.02 СЗ 3 10 км 8/0
[Ac trans Ci fib]
-1.7 -6.9 68 -6 -4 по сезону 1025.9 1007.8
12 19.02 СЗ 3 10 км 10/0
[Ac trans Ci fib]
+0.6 -4.7 68 -4 -2 по сезону 1025.0 1007.0
15 19.02 С 2 10 км 9/9 600 м
[Sc]
+0.2 -3.2 78 -3 -3 по сезону 1025.1 1007.1
18 19.02 СЗ 2 10 км 9/0
[Ac und]
-0.7 -3.7 80 -4 -4 по сезону 1025.1 1007.0 +0.8
21 19.02 С 2 10 км 9/0
[Ac und]
-1.0 -4.1 79 -5 -5 по сезону 1024.8 1006.8

 

Местоположение метеостанции Пинск (Брестская область, Беларусь): широта 52.12 долгота 26.06 высота над уровнем моря 142 м.

В архиве по умолчанию представлена погода в Пинске за последнюю неделю. Архивные данные за месяц целиком и за предыдущие месяцы, начиная с января 2011 года, Вы можете получить, выбрав интересующий диапазон дат из раскрывающегося списка и нажав кнопку "Ввод!".

Внимание! Время в таблицах - всемирное. Для получения местного времени необходимо прибавить поправку, которая в Пинске равна 3 ч.

Смотрите также архив погоды в соседних городах и на ближайших метеорологических станциях:

Погода в Полесской (Брестская область, Беларусь) (48 км)
Погода в Любешове (Волынская область, Украина) (74 км)
Погода в Ганцевичах (Брестская область, Беларусь) (75 км)
Погода в Ивацевичах (Брестская область, Беларусь) (80 км)
Погода в Маневичах (Волынская область, Украина) (100 км)
Погода в Сарнах (Ровенская область, Украина) (101 км)
Погода в Барановичах (Брестская область, Беларусь) (113 км)
Погода в Пружанах (Брестская область, Беларусь) (117 км)
Погода в Житковичах (Гомельская область, Беларусь) (124 км)
Погода в Свитязи (Волынская область, Украина) (127 км)

Пояснения к столбцам:

Ветер - указаны скорость ветра в м/с - средняя за 10 мин, порывы в срок и между сроками (в фигурных скобках) и направление, откуда дует ветер: С - северный, СВ - северо-восточный, В - восточный, ЮВ - юго-восточный, Ю - южный, ЮЗ - юго-западный, З - западный, СЗ - северо-западный.
Видимость - горизонтальная дальность видимости в метрах или километрах. При видимости от 1 до 10 км при отсутствии осадков обычно наблюдается дымка, при ухудшении видимости до 1 км и менее - туман. В сухую погоду видимость может ухудшаться дымом, пылью или мглою.
Явления - указаны атмосферные явления, наблюдавшиеся в срок или в последний час перед сроком; фигурными скобками обозначены явления, наблюдавшиеся между сроками (за 1-3 часа до срока); квадратными скобками обозначены град или гололедные отложения с указанием их диаметра в мм.
Облачность - указаны через наклонную черту общая и нижняя облачность в баллах и высота нижней границы облаков в метрах; квадратными скобками обозначены формы облаков: Ci - перистые, Cs - перисто-слоистые, Cc - перисто-кучевые, Ac - высококучевые, As - высокослоистые, Sc - слоисто-кучевые, Ns - слоисто-дождевые, Cu - кучевые, Cb - кучево-дождевые. Подробнее классификацию облаков см. в Атласе облаков (PDF).
T - Температура воздуха - температура, измеренная на высоте 2 м над землей.
Td - Температура точки росы - температура, при понижении до которой содержащийся в воздухе водяной пар достигнет насыщения.
f - Относительная влажность воздуха - влажноcть воздуха, измеренная на высоте 2 м над землей.
Te - Эффективная температура - температура, которую ощущает одетый по сезону человек в тени. Характеристика душности погоды. При расчете учитывается влияние влажности воздуха и скорости ветра на теплоощущения человека.
Tes - Эффективная температура на солнце - температура, которую ощущает человек, с поправкой на солнечный нагрев. Характеристика знойности погоды. Зависит от высоты солнца над горизонтом, облачности и скорости ветра. Ночью, в пасмурную погоду, а также при ветре 12 м/с и более поправка равна нулю.
P - Атмосферное давление - приведенное к уровню моря атмосферное давление.
Po - Атмосферное давление - измеренное на уровне метеостанции атмосферное давление.
Tmin - Минимальная температура - минимум температуры воздуха на высоте 2 м над землей.
Tmax - Максимальная температура - максимум температуры воздуха на высоте 2 м над землей.
R - Количество осадков - Количество выпавших осадков за период времени, мм. При наведении курсора мыши на число - период времени, за который выпало указанное количество осадков.
R24 - Количество осадков - Количество выпавших осадков за 24 часа, мм.
S - Снежный покров - Высота снежного покрова, см. При наведении курсора мыши на число - состояние снежного покрова и степень покрытия местности в баллах.